Home > Weather > Freistadt > Past weeks

Flag for Austria Weather for the Past 2 Weeks in Freistadt, Upper Austria, Austria

Now
32 °F

Chilly.


Feels Like: 29 °F
Forecast: 25 / 40 °F
Wind: 3 mph from Northeast

Location: Rohrbach

Current Time: Feb 12, 2016 at 10:27:11 PM

Latest Report: Feb 12, 2016 at 9:00 PM


Visibility: N/A

Pressure: 29.47 "Hg (27.46 "Hg at 565m altitude)

Humidity: 81%

Dew point: 27 °F

Location of FreistadtLocation

Historic Weather in Freistadt — Graph

°F

Freistadt Temperature Yesterday

Maximum temperature yesterday: 34 °F (at 4:00 PM)
Minimum temperature yesterday: 26 °F (at 9:00 PM)
Average temperature yesterday: 32 °F

High & Low Weather Summary for the Past Weeks

 TemperatureHumidityPressure
High50 °F (Feb 7, 3:00 PM)100% (Jan 29, 4:00 AM)30.46 "Hg (Jan 29, 4:00 AM)
Low26 °F (Feb 12, 7:00 AM)58% (Feb 8, 2:00 PM)29.23 "Hg (Feb 9, 10:00 PM)
Average38 °F88%29.98 "Hg
* Reported Jan 28 9:00 PM — Feb 12 9:00 PM, Freistadt, Weather by CustomWeather, © 2016

Note: Actual official high and low records may vary slightly from our data, if they occured in-between our weather recording intervals... More about our weather records

Advertising

Freistadt Weather History for the Previous 24 Hours

 ConditionsComfort  
Time TempWeatherWind HumidityBarometerVisibility
9:00 PM
Fri, Feb 12
32 °FChilly.3 mph81%29.47 "HgN/A
8:00 PM33 °FChilly.2 mph79%29.47 "HgN/A
7:00 PM34 °FChilly.2 mph76%29.50 "HgN/A
6:00 PM34 °FChilly.2 mph77%29.53 "HgN/A
5:00 PM37 °FChilly.1 mph69%29.54 "HgN/A
4:00 PM38 °FChilly.2 mph64%29.57 "HgN/A
3:00 PM38 °FChilly.1 mph68%29.59 "HgN/A
2:00 PM40 °FChilly.1 mph68%29.61 "HgN/A
1:00 PM37 °FChilly.1 mph76%29.65 "HgN/A
12:00 PM37 °FChilly.1 mph76%29.68 "HgN/A
11:00 AM32 °FChilly.No wind92%29.72 "HgN/A
10:00 AM29 °FChilly.1 mph96%29.75 "HgN/A
9:00 AM26 °FChilly.1 mph98%29.78 "HgN/A
8:00 AM26 °FChilly.No wind99%29.79 "HgN/A
7:00 AM26 °FChilly.1 mph99%29.80 "HgN/A
5:00 AM28 °FChilly.1 mph98%29.79 "HgN/A
4:00 AM28 °FChilly.1 mph98%29.80 "HgN/A
Weather by CustomWeather, © 2016

See weather overviewHow to use our weather pages